Flag for Germany Weather past 2 weeks in Schwäbisch Hall, Baden-Württemberg, Germany

Now
49 °F

Overcast.


Feels Like: 49 °F
Forecast: 49 / 68 °F
Wind: 1 mph from Northeast

Location: Oehringen

Current Time: May 23, 2015 at 8:45:57 AM

Latest Report: May 23, 2015 at 8:00 AM


Visibility: 14 mi

Pressure: 30.16 "Hg

Humidity: 76%

Dew point: 42 °F

Location of Schwäbisch HallLocation

Historic Weather in Schwäbisch Hall — Graph

°F

Schwäbisch Hall temperature yesterday

Maximum temperature yesterday: 67 °F (at 4:00 PM)
Minimum temperature yesterday: 38 °F (at 6:00 AM)
Average temperature yesterday: 54 °F

Past Weeks' High & Low Weather Summary

 TemperatureHumidityPressure
High83 °F (May 12, 3:00 PM)97% (May 17, 3:00 AM)30.37 "Hg (May 17, 3:00 AM)
Low38 °F (May 22, 6:00 AM)28% (May 15, 7:00 PM)29.71 "Hg (May 18, 9:00 PM)
Average59 °F63%30.08 "Hg
* Reported May 8 8:00 AM — May 23 8:00 AM, Schwäbisch Hall, Weather by CustomWeather, © 2015

Note: Actual official high and low records may vary slightly from our data, if they occured in-between our weather recording intervals... More about our weather records

Advertising

Schwäbisch Hall weather history for previous 24 hours

 ConditionsComfort  
Time TempWeatherWind HumidityBarometerVisibility
8:00 AM
Sat, May 23
49 °FOvercast.1 mph76%30.16 "Hg14 mi
7:00 AM46 °FOvercast.1 mph79%30.15 "Hg14 mi
6:00 AM45 °FScattered clouds.No wind82%30.14 "Hg14 mi
5:00 AM46 °FClear.1 mph78%30.14 "Hg19 mi
4:00 AM45 °FPassing clouds.1 mph81%30.15 "Hg15 mi
3:00 AM47 °FPassing clouds.1 mph79%30.16 "Hg16 mi
2:00 AM47 °FClear.1 mph77%30.17 "Hg19 mi
1:00 AM48 °FPassing clouds.1 mph75%30.19 "Hg22 mi
12:00 AM50 °FPassing clouds.2 mph70%30.19 "Hg28 mi
11:00 PM
Fri, May 22
53 °FClear.2 mph64%30.19 "Hg28 mi
10:00 PM56 °FPassing clouds.1 mph49%30.19 "Hg37 mi
9:00 PM60 °FSunny.2 mph43%30.17 "Hg34 mi
8:00 PM64 °FSunny.2 mph35%30.16 "Hg43 mi
7:00 PM66 °FPassing clouds.5 mph32%30.16 "Hg40 mi
6:00 PM67 °FPassing clouds.5 mph32%30.17 "Hg25 mi
5:00 PM66 °FScattered clouds.3 mph31%30.19 "Hg28 mi
4:00 PM67 °FScattered clouds.5 mph31%30.21 "Hg43 mi
3:00 PM67 °FPassing clouds.5 mph32%30.22 "Hg31 mi
2:00 PM66 °FPassing clouds.5 mph33%30.24 "Hg22 mi
1:00 PM64 °FPassing clouds.5 mph33%30.27 "Hg34 mi
12:00 PM63 °FScattered clouds.6 mph35%30.29 "Hg43 mi
11:00 AM62 °FSunny.2 mph39%30.30 "Hg40 mi
10:00 AM58 °FSunny.2 mph49%30.32 "Hg31 mi
9:00 AM52 °FSunny.2 mph61%30.34 "Hg18 mi
8:00 AM47 °FSunny.1 mph64%30.35 "Hg16 mi
Weather by CustomWeather, © 2015

See weather overviewHow to use our weather pages